Weather History for Waupaca, WI

Change the Weather History Date:

Wednesday, March 12, 2014

  Actual Average Record
Temperature  
Mean Temperature 24 °F -  
Max Temperature 35 °F 38 °F 57 °F (2012)
Min Temperature 12 °F 20 °F -2 °F (1960)
Degree Days  
Heating Degree Days 42    
Moisture  
Dew Point 8 °F    
Average Humidity 52    
Maximum Humidity 75    
Minimum Humidity 21    
Precipitation  
Precipitation 0.00 in - - ()
Sea Level Pressure  
Sea Level Pressure 29.99 in    
Wind  
Wind Speed 7 mph (NE)    
Max Wind Speed 12 mph    
Max Gust Speed 21 mph    
Visibility 10 miles    
Events Snow    
Averages and records for this station are not official NWS values.
T = Trace of Precipitation, MM = Missing Value Source: NWS Daily Summary

Daily Weather History Graph

Daily Weather History Graph

Search for Another Location

Airport:

Trip Planner

Search our weather history database for the weather conditions in past years. The results will help you decide how hot, cold, wet, or windy it might be!

Date:

Astronomy

Mar. 12, 2014 Rise Set
Actual Time 7:13 AM CDT 6:58 PM CDT
Civil Twilight 6:44 AM CDT 7:27 PM CDT
Nautical Twilight 6:11 AM CDT 8:01 PM CDT
Astronomical Twilight 5:37 AM CDT 8:35 PM CDT
Moon 3:22 PM CDT (3/12) 4:52 AM CDT (3/12)
Length of Visible Light 12h 42m
Length of Day
11h 44m
Waxing Gibbous, 85% of the Moon is Illuminated
Mar 12
Waxing Gibbous
Mar 16
Full
Mar 23
Last Quarter
Mar 30
New
Apr 7
First Quarter

Hourly Weather History & Observations

Time (CDT) Temp. Windchill Dew Point Humidity Pressure Visibility Wind Dir Wind Speed Gust Speed Precip Events Conditions
12:17 AM 35.6 °F 28.6 °F 24.8 °F 65% 29.84 in 10.0 mi East 9.2 mph - N/A   Overcast
12:37 AM 33.8 °F 27.0 °F 24.8 °F 70% 29.86 in 10.0 mi East 8.1 mph - N/A   Overcast
12:57 AM 33.8 °F 28.6 °F 24.8 °F 70% 29.86 in 10.0 mi ENE 5.8 mph - N/A   Overcast
1:17 AM 32.0 °F 26.4 °F 23.0 °F 69% 29.86 in 10.0 mi ENE 5.8 mph - N/A   Overcast
1:37 AM 32.0 °F 28.7 °F 23.0 °F 69% 29.87 in 10.0 mi NE 3.5 mph - N/A   Overcast
1:57 AM 32.0 °F 26.4 °F 24.8 °F 75% 29.88 in 10.0 mi ENE 5.8 mph - N/A   Overcast
2:17 AM 32.0 °F 25.6 °F 23.0 °F 69% 29.87 in 10.0 mi NE 6.9 mph - N/A   Overcast
2:37 AM 32.0 °F 25.6 °F 23.0 °F 69% 29.87 in 10.0 mi NE 6.9 mph - N/A   Overcast
2:57 AM 30.2 °F 21.9 °F 21.2 °F 69% 29.87 in 10.0 mi East 9.2 mph - N/A   Overcast
3:19 AM 30.2 °F 23.4 °F 21.2 °F 69% 29.86 in 10.0 mi East 6.9 mph - N/A   Overcast
3:37 AM 30.2 °F 23.4 °F 19.4 °F 64% 29.86 in 10.0 mi East 6.9 mph - N/A Snow Light Snow
3:57 AM 30.2 °F 21.9 °F 19.4 °F 64% 29.86 in 10.0 mi ENE 9.2 mph - N/A   Overcast
4:17 AM 30.2 °F 22.6 °F 21.2 °F 69% 29.86 in 7.0 mi East 8.1 mph - N/A Snow Light Snow
4:37 AM 28.4 °F 21.2 °F 19.4 °F 69% 29.87 in 10.0 mi ENE 6.9 mph - N/A Snow Light Snow
4:57 AM 28.4 °F 20.4 °F 19.4 °F 69% 29.88 in 10.0 mi NE 8.1 mph 20.7 mph N/A Snow Light Snow
5:37 AM 26.6 °F 16.2 °F 19.4 °F 74% 29.91 in 7.0 mi ENE 11.5 mph 16.1 mph N/A Snow Light Snow
5:57 AM 26.6 °F 18.2 °F 19.4 °F 74% 29.92 in 10.0 mi NE 8.1 mph - N/A Snow Light Snow
6:17 AM 26.6 °F 16.8 °F 17.6 °F 69% 29.94 in 7.0 mi NE 10.4 mph 16.1 mph N/A Snow Light Snow
6:37 AM 24.8 °F 16.1 °F 17.6 °F 74% 29.95 in 7.0 mi NNE 8.1 mph - N/A Snow Light Snow
6:57 AM 24.8 °F 15.3 °F 17.6 °F 74% 29.95 in 5.0 mi NE 9.2 mph - N/A Snow Light Snow
7:17 AM 24.8 °F 16.1 °F 15.8 °F 69% 29.96 in 10.0 mi NNE 8.1 mph - N/A   Overcast
7:37 AM 24.8 °F 16.1 °F 14.0 °F 64% 29.96 in 10.0 mi NNE 8.1 mph - N/A   Overcast
7:57 AM 24.8 °F 16.1 °F 12.2 °F 59% 29.96 in 10.0 mi NNE 8.1 mph - N/A   Overcast
8:17 AM 23.0 °F 12.4 °F 10.4 °F 59% 29.97 in 10.0 mi NNE 10.4 mph 16.1 mph N/A   Overcast
8:37 AM 23.0 °F 13.1 °F 10.4 °F 59% 29.98 in 10.0 mi NE 9.2 mph - N/A   Overcast
8:57 AM 23.0 °F 12.4 °F 10.4 °F 59% 29.98 in 10.0 mi NNE 10.4 mph - N/A   Overcast
9:17 AM 21.2 °F 11.7 °F 8.6 °F 58% 29.99 in 10.0 mi NE 8.1 mph - N/A   Overcast
9:57 AM 21.2 °F 10.9 °F 6.8 °F 54% 30.01 in 10.0 mi NNE 9.2 mph - N/A   Mostly Cloudy
10:20 AM 21.2 °F 10.9 °F 5.0 °F 50% 30.01 in 10.0 mi NE 9.2 mph - N/A   Scattered Clouds
10:37 AM 21.2 °F 9.5 °F 5.0 °F 50% 30.02 in 10.0 mi NNE 11.5 mph - N/A   Scattered Clouds
10:59 AM 21.2 °F 9.5 °F 3.2 °F 46% 30.03 in 10.0 mi North 11.5 mph 16.1 mph N/A   Clear
11:19 AM 21.2 °F 10.9 °F 3.2 °F 46% 30.03 in 10.0 mi North 9.2 mph - N/A   Clear
11:37 AM 23.0 °F 11.7 °F 1.4 °F 39% 30.03 in 10.0 mi North 11.5 mph - N/A   Clear
11:57 AM 21.2 °F 9.5 °F 1.4 °F 42% 30.03 in 10.0 mi NNE 11.5 mph 17.3 mph N/A   Clear
12:19 PM 23.0 °F 14.7 °F -0.4 °F 36% 30.03 in 10.0 mi NNE 6.9 mph 17.3 mph N/A   Clear
12:39 PM 24.8 °F 14.6 °F -0.4 °F 34% 30.03 in 10.0 mi NNE 10.4 mph 16.1 mph N/A   Clear
12:57 PM 24.8 °F 16.9 °F -0.4 °F 34% 30.03 in 10.0 mi NE 6.9 mph - N/A   Clear
1:20 PM 24.8 °F 16.9 °F -0.4 °F 34% 30.03 in 10.0 mi NE 6.9 mph - N/A   Clear
1:37 PM 24.8 °F 16.9 °F -0.4 °F 34% 30.03 in 10.0 mi NNE 6.9 mph - N/A   Clear
2:37 PM 26.6 °F 19.1 °F -0.4 °F 31% 30.01 in 10.0 mi NE 6.9 mph - N/A   Clear
2:57 PM 26.6 °F 21.2 °F -2.2 °F 29% 30.01 in 10.0 mi ENE 4.6 mph - N/A   Clear
3:17 PM 26.6 °F 20.0 °F -2.2 °F 29% 30.01 in 10.0 mi East 5.8 mph - N/A   Clear
3:57 PM 28.4 °F 23.3 °F -2.2 °F 27% 30.02 in 10.0 mi ESE 4.6 mph - N/A   Clear
4:17 PM 28.4 °F 23.3 °F -0.4 °F 29% 30.02 in 10.0 mi NE 4.6 mph - N/A   Clear
4:37 PM 28.4 °F - -4.0 °F 25% 30.03 in 10.0 mi Calm Calm - N/A   Clear
4:57 PM 28.4 °F 24.6 °F -2.2 °F 27% 30.03 in 10.0 mi North 3.5 mph - N/A   Clear
5:19 PM 28.4 °F - -7.6 °F 21% 30.03 in 10.0 mi Calm Calm - N/A   Clear
5:39 PM 28.4 °F 22.2 °F -7.6 °F 21% 30.03 in 10.0 mi NNW 5.8 mph - N/A   Clear
5:57 PM 26.6 °F 19.1 °F -5.8 °F 24% 30.04 in 10.0 mi NNW 6.9 mph - N/A   Clear
6:17 PM 26.6 °F 21.2 °F -5.8 °F 24% 30.04 in 10.0 mi NW 4.6 mph - N/A   Clear
6:37 PM 26.6 °F 22.6 °F -4.0 °F 26% 30.05 in 10.0 mi North 3.5 mph - N/A   Clear
6:57 PM 26.6 °F 22.6 °F -4.0 °F 26% 30.06 in 10.0 mi NNW 3.5 mph - N/A   Clear
7:17 PM 24.8 °F - -4.0 °F 28% 30.06 in 10.0 mi Calm Calm - N/A   Clear
7:37 PM 21.2 °F 10.9 °F 5.0 °F 50% 30.06 in 10.0 mi ESE 9.2 mph - N/A   Clear
7:57 PM 19.4 °F 11.5 °F 5.0 °F 54% 30.07 in 10.0 mi ESE 5.8 mph - N/A   Clear
8:17 PM 19.4 °F 11.5 °F 3.2 °F 49% 30.08 in 10.0 mi ESE 5.8 mph - N/A   Clear
8:37 PM 19.4 °F 14.3 °F 3.2 °F 49% 30.09 in 10.0 mi ESE 3.5 mph - N/A   Clear
8:57 PM 19.4 °F - 3.2 °F 49% 30.09 in 10.0 mi Calm Calm - N/A   Clear
9:17 PM 19.4 °F - 3.2 °F 49% 30.09 in 10.0 mi Calm Calm - N/A   Clear
9:37 PM 17.6 °F - 3.2 °F 53% 30.09 in 10.0 mi Calm Calm - N/A   Clear
9:57 PM 17.6 °F - 3.2 °F 53% 30.09 in 10.0 mi Calm Calm - N/A   Clear
10:17 PM 17.6 °F - 3.2 °F 53% 30.10 in 10.0 mi Calm Calm - N/A   Clear
10:39 PM 15.8 °F - 3.2 °F 58% 30.09 in 10.0 mi Calm Calm - N/A   Clear
10:57 PM 15.8 °F - 3.2 °F 58% 30.10 in 10.0 mi Calm Calm - N/A   Clear
11:17 PM 14.0 °F - 3.2 °F 62% 30.09 in 10.0 mi Calm Calm - N/A   Clear
11:37 PM 12.2 °F - 5.0 °F 73% 30.09 in 10.0 mi Calm Calm - N/A   Clear
11:57 PM 12.2 °F - 5.0 °F 73% 30.09 in 10.0 mi Calm Calm - N/A   Clear